Dewpoint
28 28 30 31 33 40 36 33 32 35 42 41 42 43 46 48 48 49 48 48 47 47 50 54 56 56 57 58 61 63 62 63 64 64 64 63 65 67 68 68 72 71 72 72
25 23 27 30 33 32 31 31 31 35 38 40 39 40 45 47 48 49 49 48 46 47 49 53 55 56 56 57 60 62 63 65 67 63 62 62 63 67 69 68 71 71 71 71
22 17 24 28 31 32 31 29 31 31 39 38 38 37 41 47 49 49 49 48 47 46 47 52 54 55 56 57 59 62 63 65 67 64 63 63 65 69 67 66 70 72 71 70
18 20 20 23 26 30 28 30 29 28 33 33 40 40 41 43 48 49 49 48 47 45 47 50 52 53 54 56 58 60 63 65 68 67 64 66 63 63 64 65 66 70 70 70
16 16 19 19 22 27 28 30 29 28 28 25 26 25 37 40 44 47 49 49 47 45 46 48 49 51 52 54 56 59 62 65 67 68 68 65 65 62 62 63 70 69 71 71
10 15 16 17 20 24 26 28 28 29 27 22 20 27 43 34 37 43 46 48 49 47 45 47 48 49 50 52 54 56 62 67 68 69 69 68 65 63 63 62 66 66 68 70
4 7 11 12 15 19 22 25 24 23 22 20 21 24 39 44 34 31 40 45 48 48 46 45 46 47 49 50 53 55 63 67 69 69 69 69 67 67 66 67 64 67 68 66
2 -2 3 8 9 15 21 23 20 19 16 13 21 21 32 45 27 27 28 38 46 48 47 45 46 46 47 50 52 54 63 68 68 68 69 71 70 67 67 66 63 70 68 65
5 5 4 3 6 7 10 19 21 17 17 16 26 19 24 27 23 28 31 30 43 47 48 46 46 46 47 50 53 55 62 67 68 68 70 71 71 68 64 66 65 63 66 72
9 7 5 3 4 5 3 9 16 18 16 17 14 13 15 21 20 16 28 33 38 45 48 48 47 46 47 50 53 56 63 67 67 65 68 68 69 70 68 66 67 67 70 73
8 8 9 8 2 2 3 4 11 17 15 12 13 13 14 14 13 11 16 31 34 42 48 48 48 47 46 49 52 56 62 64 65 63 66 67 67 68 69 67 68 69 69 70
12 9 7 9 8 5 3 0 1 11 16 15 15 15 13 11 10 10 9 17 35 42 47 48 48 46 46 50 52 56 60 62 64 64 67 66 68 66 66 67 67 68 69 70
14 11 9 9 5 4 1 -1 1 -1 5 10 12 11 12 12 11 11 9 19 33 43 47 47 47 44 45 50 57 60 61 61 63 65 64 65 67 67 65 67 67 67 68 70
23 15 11 9 11 6 2 0 3 2 -1 1 6 9 11 11 11 11 12 20 31 46 47 46 45 44 45 52 64 66 65 63 65 64 63 65 68 68 68 68 69 68 70 72
23 15 14 13 11 6 3 1 1 3 2 1 3 5 8 11 11 19 22 28 34 47 46 46 43 44 48 57 66 68 68 67 68 65 66 69 70 71 72 71 71 72 73 73
21 16 16 17 12 5 -0 2 2 3 4 4 5 5 10 11 13 18 23 20 32 47 46 45 47 50 50 56 66 69 69 70 67 66 67 71 73 73 73 74 73 74 74 74
20 17 16 16 14 7 5 2 3 4 5 5 5 7 9 12 24 25 26 29 33 48 47 49 50 49 52 56 67 70 71 70 68 68 69 72 73 74 75 75 75 75 74 73
22 18 17 16 16 12 11 11 11 10 10 11 10 9 12 22 32 31 30 32 35 40 49 54 52 50 55 57 63 70 71 70 70 71 71 73 73 72 73 75 75 75 74 73
26 24 19 20 19 17 13 16 16 14 14 14 13 10 23 33 35 40 48 38 38 41 50 52 53 52 56 59 66 69 69 70 69 70 71 72 72 72 74 74 75 75 73 73
25 25 25 23 18 19 16 20 24 21 19 36 37 37 40 41 34 50 56 55 47 45 50 52 53 52 54 60 64 68 69 69 70 70 71 72 73 74 75 76 75 74 73 72
27 28 24 24 26 22 32 31 26 22 34 45 45 46 47 44 49 53 58 61 56 49 51 53 53 52 56 61 65 67 66 66 67 67 71 73 74 76 76 75 75 74 73 72
29 27 24 24 23 25 34 32 26 46 48 48 50 52 50 50 50 54 62 63 61 53 53 56 55 54 58 62 68 65 65 66 68 69 72 76 76 74 75 75 75 74 73 73
27 28 25 22 24 42 40 44 46 45 48 49 52 53 52 50 50 55 61 63 61 57 54 56 56 56 58 63 67 65 67 69 71 73 75 76 76 75 75 75 74 72 73 68
30 34 27 25 40 43 46 48 48 48 48 47 49 52 54 50 51 56 61 63 61 58 55 57 58 58 59 65 65 66 69 71 74 75 75 75 75 75 74 72 71 68 66 64
36 35 34 40 45 45 47 45 47 48 47 47 48 50 53 52 52 57 60 64 65 63 59 59 60 60 62 64 66 69 70 71 71 74 74 75 73 72 70 61 62 63 58 58
41 34 30 30 42 43 45 44 47 47 47 48 49 49 51 54 52 57 60 65 66 66 67 65 64 63 63 65 67 71 72 72 72 73 73 71 71 69 64 61 57 50 51 52
Wind_Speed
19 18 20 20 11 22 13 1 3 6 12 13 14 14 17 20 20 20 21 21 22 22 22 22 20 20 18 18 18 17 15 13 12 11 12 12 11 9 8 7 6 6 9 9
19 21 20 7 6 5 8 9 11 9 6 10 12 15 21 20 23 22 22 22 23 23 25 24 24 23 21 20 20 18 16 14 14 14 12 10 13 6 5 8 8 7 7 7
26 20 22 5 10 12 13 17 3 1 8 15 12 14 15 22 20 20 21 22 23 25 26 27 26 25 23 22 21 20 18 17 16 12 10 7 4 2 8 8 9 7 7 9
18 28 7 11 16 15 22 11 2 6 13 12 15 6 34 24 23 22 23 23 24 26 27 28 28 26 25 23 22 21 19 18 16 13 11 11 11 12 9 10 10 10 10 9
23 20 15 17 19 17 18 3 7 7 15 21 13 10 19 19 22 22 25 25 24 26 28 28 28 27 25 24 23 22 21 19 16 16 11 13 12 8 8 10 12 7 11 8
25 15 21 20 20 16 14 7 12 16 17 20 18 13 19 17 16 19 22 24 26 25 27 27 26 27 24 24 22 22 22 18 18 17 16 13 12 10 9 8 10 13 13 14
22 28 16 16 18 13 17 16 18 18 19 20 3 3 20 18 6 7 19 24 26 26 27 28 27 26 26 24 23 21 21 20 20 20 18 16 12 12 8 9 10 15 10 12
19 22 28 18 22 22 23 23 23 15 19 20 15 5 13 48 10 8 7 16 24 28 27 27 26 24 25 24 22 20 23 22 22 21 20 16 15 15 14 15 14 17 4 13
10 18 10 28 19 23 25 26 27 30 26 25 24 11 14 15 6 9 11 8 20 28 28 28 28 26 26 23 21 22 23 22 22 23 19 18 17 16 14 12 11 11 7 7
11 11 16 12 18 21 25 19 21 26 23 20 13 13 4 7 1 7 11 7 18 23 29 28 28 27 25 24 23 24 24 23 23 22 20 18 18 16 12 9 10 11 10 24
22 11 11 11 22 22 18 24 17 23 24 24 20 12 5 10 3 4 2 7 11 21 29 28 26 26 26 26 26 25 24 22 21 20 19 18 18 17 15 13 11 10 4 4
20 14 14 17 17 22 26 25 27 24 22 23 18 11 7 3 3 3 4 4 11 19 27 28 27 26 28 29 28 27 24 23 24 23 21 20 18 16 17 15 13 11 8 7
14 13 16 15 14 10 17 29 24 27 27 26 25 18 13 8 4 7 7 8 8 17 26 27 27 28 28 27 23 23 23 24 24 21 23 22 19 18 17 16 13 11 9 9
9 16 18 15 13 17 21 23 23 22 25 28 29 24 6 8 12 11 6 8 11 18 27 28 27 28 27 27 22 24 25 28 21 19 22 21 21 18 16 15 14 14 10 10
15 20 19 14 9 9 16 20 25 26 24 22 15 13 14 4 4 13 8 5 12 20 28 28 28 28 25 26 26 24 25 21 18 13 17 19 18 18 15 14 14 13 12 12
19 21 18 13 7 8 12 20 23 22 22 19 20 20 15 10 5 8 11 11 15 23 28 29 25 25 28 28 27 25 24 20 17 14 17 15 17 17 16 15 14 14 14 13
21 20 21 15 18 11 14 15 17 14 13 16 19 16 19 8 7 8 6 12 18 25 28 27 28 28 29 27 26 26 24 21 19 16 16 17 17 17 16 16 15 15 15 14
24 19 20 16 19 18 14 17 16 17 16 16 17 19 11 4 8 13 8 9 16 23 28 25 27 28 28 27 27 22 24 22 20 18 17 18 17 16 16 17 17 16 16 14
23 18 18 21 15 13 19 8 10 13 15 18 21 16 5 9 14 3 3 5 11 21 27 26 27 27 23 25 23 22 23 22 21 19 18 18 18 18 18 18 19 18 18 15
29 22 21 16 18 21 18 12 10 0 10 8 8 7 7 12 16 11 4 2 5 15 21 24 24 23 25 24 25 25 24 23 23 23 22 22 20 18 19 19 18 18 17 16
22 26 24 23 16 20 23 7 7 12 4 6 6 5 6 9 9 4 6 1 5 7 15 17 20 22 25 25 28 27 27 27 25 25 24 23 21 19 18 18 18 18 17 16
26 27 25 20 25 22 15 16 13 7 9 5 4 5 7 8 8 2 2 1 6 8 11 15 18 20 25 25 28 27 25 23 24 25 25 24 22 21 19 19 17 16 16 16
30 22 28 22 17 12 3 14 11 6 8 3 1 4 6 9 6 3 2 3 5 9 11 13 14 18 21 25 25 28 26 26 23 23 23 23 23 20 22 21 18 17 15 17
18 5 17 19 12 10 11 10 10 7 7 2 2 4 6 6 6 4 2 3 6 8 11 13 14 15 18 18 17 14 16 19 21 21 21 21 22 22 22 20 20 17 17 15
11 20 16 9 8 9 7 8 7 4 4 2 3 4 6 5 5 4 4 3 4 6 9 10 12 13 16 17 17 18 16 16 19 21 24 22 20 23 17 13 4 14 11 2
10 12 21 15 20 10 13 8 3 3 3 4 4 4 5 6 4 3 4 5 4 5 7 9 10 13 16 19 18 19 17 17 19 23 22 24 23 24 20 19 19 25 17 22
Wind_Direction
205 220 223 215 218 164 229 274 189 127 128 197 212 224 176 185 199 191 194 191 192 194 188 177 184 179 175 172 177 187 188 173 182 203 194 204 198 194 182 176 134 185 176 200
207 230 236 253 69 245 234 233 189 127 164 218 217 222 169 189 202 199 199 191 197 194 187 189 188 181 183 180 178 183 193 173 201 193 212 208 198 168 112 209 173 217 193 194
232 208 240 205 197 242 240 250 185 39 171 223 226 228 206 184 200 207 205 198 195 197 199 191 189 190 189 183 184 185 190 181 196 229 197 195 200 150 209 202 182 195 194 213
218 250 219 211 235 221 249 221 107 243 248 242 239 99 234 184 190 202 206 206 196 196 199 193 191 195 192 187 187 188 188 191 192 203 187 185 201 202 200 203 158 168 206 209
226 233 217 237 231 229 261 229 249 248 262 267 222 262 135 172 180 199 209 206 206 191 195 201 196 190 198 189 190 188 186 190 193 191 219 181 229 198 187 236 126 206 179 204
250 223 231 232 239 246 273 239 246 251 252 267 255 216 162 196 172 187 195 210 206 198 196 198 199 188 197 191 193 187 179 186 193 191 201 197 197 240 211 202 182 195 190 175
221 240 221 246 251 198 234 234 235 223 226 242 212 254 129 320 190 118 175 190 203 204 191 195 199 195 187 193 190 188 168 184 190 191 195 196 206 216 233 226 216 10 251 191
215 214 221 207 231 230 211 235 243 234 242 241 146 202 164 193 153 128 114 173 191 196 194 193 196 196 184 189 187 189 168 184 189 189 194 196 198 202 217 223 247 192 290 199
238 231 212 211 213 234 240 218 245 267 277 282 202 181 149 210 146 161 137 168 177 190 198 190 188 193 186 187 184 188 174 183 188 190 192 193 196 219 215 240 222 238 221 60
251 268 203 192 217 225 240 247 224 249 269 270 271 234 213 145 48 358 115 162 171 188 192 191 189 190 183 182 182 187 175 183 189 190 192 195 197 206 229 218 245 282 8 109
243 238 153 221 208 216 207 242 253 256 223 254 262 256 210 115 144 270 133 207 170 178 186 191 191 186 180 180 178 179 179 183 188 194 188 191 200 198 207 217 216 238 203 91
219 250 226 206 215 219 241 217 231 239 248 259 266 249 92 127 136 273 305 167 164 177 182 188 187 182 184 183 182 181 183 184 188 188 178 190 193 201 198 217 207 213 225 192
216 229 251 239 160 213 231 234 227 235 245 242 257 251 255 245 135 289 277 121 174 180 178 187 184 182 191 180 176 173 179 189 192 195 183 182 190 195 206 200 216 223 202 215
293 243 240 247 233 206 200 229 239 247 234 234 242 257 269 263 292 289 224 176 172 188 179 188 185 184 191 174 163 163 185 194 190 181 202 186 182 193 197 205 196 211 201 200
230 246 257 283 282 289 211 206 226 237 253 268 250 246 271 276 313 352 71 157 161 186 181 189 191 184 186 168 164 175 192 195 180 192 194 183 180 185 188 198 201 200 194 196
223 251 275 288 236 247 254 212 213 222 234 255 272 283 300 315 304 295 297 207 195 190 190 192 199 179 181 176 172 183 190 185 173 187 193 178 175 178 184 193 195 194 190 193
225 233 248 243 240 220 241 222 234 223 217 240 253 249 251 249 356 310 253 210 200 186 201 192 196 189 187 186 177 185 186 183 180 179 183 177 177 180 186 188 186 191 194 182
219 220 245 241 231 219 244 217 209 220 225 243 239 262 288 13 295 270 212 217 206 196 200 193 196 203 187 195 187 182 183 183 178 180 181 175 175 178 185 185 184 187 190 175
256 233 232 246 219 219 235 160 212 229 249 259 258 245 8 330 307 146 344 285 234 202 197 195 197 204 183 188 174 180 182 180 178 178 180 178 183 184 182 186 185 182 182 167
250 243 249 251 238 247 225 194 107 167 243 58 16 5 346 315 288 74 29 331 257 187 194 193 191 203 177 182 172 175 177 180 178 178 177 177 184 188 182 184 178 184 174 166
224 248 240 237 251 250 89 20 163 214 93 58 32 7 324 305 352 254 304 77 234 227 180 185 192 195 171 176 169 177 179 182 183 177 173 175 177 180 182 178 177 175 181 155
207 223 237 246 247 240 144 174 218 97 104 66 32 353 320 305 288 203 309 206 183 198 175 185 189 186 167 174 164 179 179 175 177 170 170 168 170 174 169 178 174 175 159 145
218 214 221 233 243 120 123 87 97 85 109 109 88 349 327 305 279 201 95 153 162 168 173 183 178 177 171 171 172 182 172 165 167 169 168 165 166 173 159 164 165 161 159 162
207 236 246 220 128 127 109 107 97 81 91 86 64 349 331 315 274 221 155 151 153 147 160 165 169 175 170 162 174 174 168 166 164 167 163 167 170 156 156 164 164 166 181 178
258 172 230 137 93 119 142 88 84 81 60 44 17 337 342 321 289 232 181 179 143 143 141 146 163 171 160 156 161 145 161 169 173 168 168 168 158 161 143 85 96 155 73 58
199 190 199 237 169 201 131 106 96 73 51 34 356 325 334 332 303 240 196 175 170 153 134 142 150 154 157 156 156 154 165 172 177 171 173 175 164 155 143 133 92 56 76 76